TimeAKST,TemperatureF,Dew PointF,Humidity,Sea Level PressureIn,VisibilityMPH,Wind Direction,Wind SpeedMPH,Gust SpeedMPH,PrecipitationIn,Events,Conditions,WindDirDegrees,DateUTC
12:53 AM,19.0,12.9,77,30.66,10.0,ESE,21.9,-,N/A,,Mostly Cloudy,110,2014-02-03 09:53:00
1:53 AM,19.9,12.9,74,30.65,10.0,East,23.0,-,N/A,,Overcast,100,2014-02-03 10:53:00
2:53 AM,19.9,12.9,74,30.64,10.0,ESE,27.6,35.7,N/A,,Overcast,110,2014-02-03 11:53:00
3:53 AM,19.9,12.9,74,30.63,10.0,ESE,28.8,42.6,N/A,,Overcast,110,2014-02-03 12:53:00
4:53 AM,19.0,12.9,77,30.62,10.0,ESE,29.9,-,0.00,,Overcast,110,2014-02-03 13:53:00
5:01 AM,18.0,12.9,81,30.51,10.0,ESE,21.9,31.1,N/A,,Mostly Cloudy,110,2014-02-03 14:01:00
5:57 AM,18.0,12.9,81,30.52,10.0,ESE,25.3,31.1,0.00,,Overcast,110,2014-02-03 14:57:00
5:59 AM,18.0,12.9,81,30.52,10.0,East,25.3,31.1,0.00,Snow,Light Snow,100,2014-02-03 14:59:00
6:53 AM,18.0,12.0,78,30.63,9.0,East,28.8,39.1,0.00,Snow,Light Snow,100,2014-02-03 15:53:00
7:53 AM,17.1,12.0,81,30.64,9.0,East,25.3,34.5,0.00,Snow,Light Snow,100,2014-02-03 16:53:00
8:53 AM,17.1,10.9,77,30.64,10.0,East,26.5,34.5,0.00,,Scattered Clouds,100,2014-02-03 17:53:00
9:53 AM,16.0,10.0,77,30.63,10.0,ESE,25.3,38.0,N/A,,Scattered Clouds,110,2014-02-03 18:53:00
10:53 AM,17.1,10.0,74,30.63,10.0,ESE,28.8,38.0,N/A,,Scattered Clouds,110,2014-02-03 19:53:00
11:53 AM,17.1,9.0,71,30.63,10.0,ESE,27.6,38.0,0.00,,Scattered Clouds,110,2014-02-03 20:53:00
12:53 PM,17.1,9.0,71,30.63,10.0,East,27.6,35.7,0.00,,Scattered Clouds,100,2014-02-03 21:53:00
1:53 PM,17.1,9.0,71,30.63,10.0,ESE,29.9,35.7,N/A,,Scattered Clouds,110,2014-02-03 22:53:00
2:53 PM,17.1,9.0,71,30.64,10.0,ESE,25.3,39.1,0.00,Snow,Light Snow,110,2014-02-03 23:53:00
3:53 PM,17.1,8.1,68,30.64,10.0,ESE,25.3,34.5,0.00,,Scattered Clouds,110,2014-02-04 00:53:00
4:53 PM,16.0,8.1,71,30.65,10.0,ESE,26.5,34.5,N/A,,Scattered Clouds,110,2014-02-04 01:53:00
5:53 PM,15.1,7.0,70,30.66,10.0,ESE,25.3,36.8,N/A,,Scattered Clouds,110,2014-02-04 02:53:00
6:53 PM,15.1,7.0,70,30.67,10.0,ESE,31.1,41.4,N/A,,Scattered Clouds,110,2014-02-04 03:53:00
7:53 PM,14.0,6.1,71,30.69,10.0,East,21.9,33.4,N/A,,Scattered Clouds,100,2014-02-04 04:53:00
8:53 PM,15.1,6.1,68,30.70,10.0,ESE,24.2,40.3,N/A,,Scattered Clouds,110,2014-02-04 05:53:00
9:53 PM,14.0,6.1,71,30.71,10.0,ESE,24.2,36.8,N/A,,Clear,110,2014-02-04 06:53:00
10:53 PM,14.0,6.1,71,30.71,10.0,East,24.2,35.7,N/A,,Clear,100,2014-02-04 07:53:00
11:53 PM,14.0,5.0,67,30.72,10.0,ESE,29.9,39.1,N/A,,Clear,110,2014-02-04 08:53:00